Tracking 20715 objects as of 27-May-2020
HD Live streaming from Space Station
objects crossing your sky now

IRIDIUM 33 DEB

Track IRIDIUM 33 DEB now!
10-day predictions


NORAD ID: 34361
Int'l Code: 1997-051FD
Perigee: 565.2 km
Apogee: 587.4 km
Inclination: 86.3 °
Period: 96.0 minutes
Semi major axis: 6947 km
RCS: 0.038 m2 (small)
Launch date: September 14, 1997
Source: United States (US)
Launch site: TYURATAM MISSILE AND SPACE COMPLEX (TTMTR)

Note: This is SATELLITE DEBRIS
aabbcc
Your satellite tracking list
Your tracking list is empty




NASA's NSSDC Master Catalog

Two Line Element Set (TLE):
1 34361U 97051FD  20147.86129122 +.00009533 +00000-0 +77693-3 0  9999
2 34361 086.3479 119.9572 0015987 144.6273 215.6022 14.99266510598831
Source of the keplerian elements: AFSPC